This demonstration page uses our WeatherBlox Daily Observations layout. Learn more.

Left ArrowRight Arrow

39.08367, -84.50855

Hourly Observations for January 22, 2017

Temp ( °F °C ) Dew Point ( °F °C ) Humidity (%) Winds ( mph kmh ) Pressure ( in mb ) Visibility ( mi km ) Precip ( " mm )
12:47 am 00:47 Mostly Clear with Mist and Fog 48 9 48 9 100 100 Calm 29.68 1005 2 3 0.00 0.00
12:53 am 00:53 Mostly Clear with Mist and Fog 49 9.4 49 9.4 100 100 Calm 29.65 1004 1 2 0.00 0.00
12:58 am 00:58 Clear with Mist and Fog 49 9.4 49 9.4 100 100 NNE 3 6 29.68 1005 3 5 0.00 0.00
1:00 am 01:00 Clear with Mist and Fog 48 9 48 9 100 100 Calm 29.68 1005 2 3 0.00 0.00
1:10 am 01:10 Clear with Mist and Fog 48 9 48 9 100 100 Calm 29.68 1005 1 1 0.00 0.00
1:23 am 01:23 Mostly Cloudy with Fog 47 8.3 47 8.3 100 100 Calm 29.68 1005 0 0 0.00 0.00
1:53 am 01:53 Mostly Cloudy with Fog 47 8.3 47 8.3 100 100 Calm 29.63 1003 0 0 0.00 0.00
2:53 am 02:53 Mostly Cloudy with Fog 44 6.7 44 6.7 100 100 Calm 29.60 1002 0 0 0.00 0.00
3:53 am 03:53 Mostly Cloudy with Fog 42 5.6 42 5.6 100 100 SSW 5 7 29.58 1002 0 0 0.00 0.00
4:53 am 04:53 Mostly Cloudy with Fog 41 5 41 5 100 100 Calm 29.57 1002 0 0 0.00 0.00
5:53 am 05:53 Mostly Cloudy with Fog 43 6.1 43 6.1 100 100 Calm 29.59 1002 0 0 0.00 0.00
6:53 am 06:53 Mostly Cloudy with Fog 42 5.6 42 5.6 100 100 Calm 29.60 1002 1 1 0.00 0.00
7:53 am 07:53 Mostly Cloudy with Fog 41 5 41 5 100 100 Calm 29.60 1002 1 1 0.00 0.00
8:35 am 08:35 Partly Cloudy with Mist and Fog 43 6.1 43 6.1 100 100 Calm 29.62 1003 1 2 0.00 0.00
8:53 am 08:53 Partly Cloudy with Mist and Fog 43 6.1 43 6.1 100 100 Calm 29.59 1002 5 8 0.00 0.00
9:53 am 09:53 Mostly Sunny 47 8.3 47 8.3 100 100 Calm 29.58 1002 7 11 0.00 0.00
10:53 am 10:53 Partly Cloudy 51 10.6 50 10 96 96 Calm 29.57 1001 9 14 0.00 0.00
11:53 am 11:53 Sunny 57 13.9 53 11.7 87 87 NE 7 11 29.53 1000 10 16 0.00 0.00
12:53 pm 12:53 Sunny 60 15.6 53 11.7 78 78 NE 9 15 29.48 998 10 16 0.00 0.00
1:53 pm 13:53 Sunny 64 17.8 53 11.7 68 68 ENE 9 15 29.46 998 10 16 0.00 0.00
2:53 pm 14:53 Sunny 63 17.2 52 11.1 68 68 NE 9 15 29.44 997 10 16 0.00 0.00
3:53 pm 15:53 Sunny 62 16.7 51 10.6 67 67 ENE 7 11 29.45 997 10 16 0.00 0.00
4:53 pm 16:53 Sunny 61 16.1 51 10.6 70 70 NE 9 15 29.44 997 10 16 0.00 0.00
5:53 pm 17:53 Clear 60 15.6 50 10 70 70 NE 10 17 29.42 996 10 16 0.00 0.00
6:53 pm 18:53 Cloudy 59 15 50 10 72 72 NE 8 13 29.45 997 10 16 0.00 0.00
7:53 pm 19:53 Cloudy 59 15 50 10 72 72 NE 12 19 29.46 998 10 16 0.00 0.00
8:53 pm 20:53 Mostly Cloudy with Light Rain 57 13.9 50 10 78 78 NE 9 15 29.44 997 10 16 0.00 0.03
9:53 pm 21:53 Mostly Cloudy 57 13.9 50 10 78 78 NNE 7 11 29.44 997 10 16 0.00 0.03
10:53 pm 22:53 Cloudy 57 13.9 49 9.4 74 74 NNE 9 15 29.43 997 10 16 0.00 0.00
11:53 pm 23:53 Cloudy 57 13.9 50 10 78 78 NNE 8 13 29.41 996 10 16 0.00 0.00

Powered by AerisWeather